Terminal Aerodrome Forecast
Issued by NWS

Home | Current Version | Previous Version | Text Only | Print | Product List | Glossary On
Versions: 1 2 3 4 5 6 7 8 9 10 11 12
000
FTUS46 KLOX 250500
TAFPRB
TAF
KPRB 250525Z 2506/2606 25005KT P6SM SCT200
     FM250900 VRB03KT P6SM BKN120
     FM251400 15005KT P6SM VCSH BKN015 OVC100
     FM251600 21007KT P6SM -SHRA BKN010 OVC060
     FM251900 25012KT P6SM SCT040 BKN150
     FM260300 30007KT P6SM BKN150=

USA.gov is the U.S. government's official web portal to all federal, state and local government web resources and services.